Time,TemperatureF,DewpointF,PressureIn,WindDirection,WindDirectionDegrees,WindSpeedMPH,WindSpeedGustMPH,Humidity,HourlyPrecipIn,Conditions,Clouds,dailyrainin,SolarRadiationWatts/m^2,SoftwareType,DateUTC
2013-02-20 00:00:00,42.0,34.6,29.96,South,177,1.0,2.0,75,0.00,,,0.00,0.0,WeatherDisplay:10.37,2013-02-19 23:00:00,
2013-02-20 00:05:00,42.7,35.3,29.96,South,177,1.0,2.0,75,0.00,,,0.00,0.0,WeatherDisplay:10.37,2013-02-19 23:05:00,
2013-02-20 00:10:00,43.1,35.4,29.96,South,177,1.0,2.0,74,0.00,,,0.00,0.0,WeatherDisplay:10.37,2013-02-19 23:10:00,
2013-02-20 00:15:00,43.1,35.4,29.96,South,177,0.0,2.0,74,0.00,,,0.00,0.0,WeatherDisplay:10.37,2013-02-19 23:15:00,
2013-02-20 00:20:00,42.7,35.0,29.96,South,177,0.0,0.0,74,0.00,,,0.00,0.0,WeatherDisplay:10.37,2013-02-19 23:20:00,
2013-02-20 00:25:00,41.9,34.2,29.96,South,177,0.0,0.0,74,0.00,,,0.00,0.0,WeatherDisplay:10.37,2013-02-19 23:25:00,
2013-02-20 00:30:00,40.1,32.8,29.96,South,177,0.0,1.0,75,0.00,,,0.00,0.0,WeatherDisplay:10.37,2013-02-19 23:30:00,
2013-02-20 00:35:00,40.3,34.0,29.96,South,177,0.0,2.0,78,0.00,,,0.00,0.0,WeatherDisplay:10.37,2013-02-19 23:35:00,
2013-02-20 00:40:00,40.2,33.9,29.96,South,177,0.0,0.0,78,0.00,,,0.00,0.0,WeatherDisplay:10.37,2013-02-19 23:40:00,
2013-02-20 00:45:00,40.2,34.2,29.96,South,177,0.0,0.0,79,0.00,,,0.00,0.0,WeatherDisplay:10.37,2013-02-19 23:45:00,
2013-02-20 00:50:00,40.2,34.2,29.96,South,177,0.0,0.0,79,0.00,,,0.00,0.0,WeatherDisplay:10.37,2013-02-19 23:50:00,
2013-02-20 00:55:00,40.2,34.2,29.96,South,177,0.0,0.0,79,0.00,,,0.00,0.0,WeatherDisplay:10.37,2013-02-19 23:55:00,
2013-02-20 01:00:00,40.0,34.0,29.96,South,177,0.0,0.0,79,0.00,,,0.00,0.0,WeatherDisplay:10.37,2013-02-20 00:00:00,
2013-02-20 01:05:00,40.2,34.5,29.96,South,177,0.0,0.0,80,0.00,,,0.00,0.0,WeatherDisplay:10.37,2013-02-20 00:05:00,
2013-02-20 01:10:00,40.4,34.4,29.96,South,177,0.0,0.0,79,0.00,,,0.00,0.0,WeatherDisplay:10.37,2013-02-20 00:10:00,
2013-02-20 01:15:00,39.6,33.6,29.97,South,177,0.0,0.0,79,0.00,,,0.00,0.0,WeatherDisplay:10.37,2013-02-20 00:15:00,
2013-02-20 01:20:00,39.5,33.8,29.97,South,177,0.0,0.0,80,0.00,,,0.00,0.0,WeatherDisplay:10.37,2013-02-20 00:20:00,
2013-02-20 01:25:00,39.6,33.9,29.97,South,177,0.0,0.0,80,0.00,,,0.00,0.0,WeatherDisplay:10.37,2013-02-20 00:25:00,
2013-02-20 01:30:00,39.8,34.1,29.97,South,177,0.0,0.0,80,0.00,,,0.00,0.0,WeatherDisplay:10.37,2013-02-20 00:30:00,
2013-02-20 01:35:00,40.0,34.3,29.97,South,177,0.0,1.0,80,0.00,,,0.00,0.0,WeatherDisplay:10.37,2013-02-20 00:35:00,
2013-02-20 01:45:00,39.4,33.7,29.97,ESE,114,2.0,3.0,80,0.00,,,0.00,0.0,WeatherDisplay:10.37,2013-02-20 00:45:00,
2013-02-20 01:50:00,39.4,33.7,29.97,East,80,2.0,4.0,80,0.00,,,0.00,0.0,WeatherDisplay:10.37,2013-02-20 00:50:00,
2013-02-20 01:55:00,39.6,33.9,29.97,ENE,72,2.0,4.0,80,0.00,,,0.00,0.0,WeatherDisplay:10.37,2013-02-20 00:55:00,
2013-02-20 02:00:00,39.5,33.8,29.97,ENE,71,2.0,3.0,80,0.00,,,0.00,0.0,WeatherDisplay:10.37,2013-02-20 01:00:00,
2013-02-20 02:05:00,39.3,33.6,29.97,ENE,71,0.0,3.0,80,0.00,,,0.00,0.0,WeatherDisplay:10.37,2013-02-20 01:05:00,
2013-02-20 02:10:00,39.3,34.0,29.97,ENE,71,1.0,3.0,81,0.00,,,0.00,0.0,WeatherDisplay:10.37,2013-02-20 01:10:00,
2013-02-20 02:15:00,39.3,33.9,29.97,ENE,71,0.0,4.0,81,0.00,,,0.00,0.0,WeatherDisplay:10.37,2013-02-20 01:15:00,
2013-02-20 02:20:00,38.8,33.2,29.97,ENE,71,2.0,3.0,80,0.00,,,0.00,0.0,WeatherDisplay:10.37,2013-02-20 01:20:00,
2013-02-20 02:25:00,38.7,33.4,29.96,ENE,71,1.0,3.0,81,0.00,,,0.00,0.0,WeatherDisplay:10.37,2013-02-20 01:25:00,
2013-02-20 02:30:00,38.9,33.5,29.96,ENE,71,1.0,2.0,81,0.00,,,0.00,0.0,WeatherDisplay:10.37,2013-02-20 01:30:00,
2013-02-20 02:40:00,39.5,34.1,29.96,ENE,71,1.0,4.0,81,0.00,,,0.00,0.0,WeatherDisplay:10.37,2013-02-20 01:40:00,
2013-02-20 02:45:00,39.5,34.2,29.96,ENE,71,3.0,5.0,81,0.00,,,0.00,0.0,WeatherDisplay:10.37,2013-02-20 01:45:00,
2013-02-20 02:50:00,39.0,33.7,29.96,ENE,71,3.0,5.0,81,0.00,,,0.00,0.0,WeatherDisplay:10.37,2013-02-20 01:50:00,
2013-02-20 02:55:00,38.9,33.9,29.96,ENE,69,5.0,7.0,82,0.00,,,0.00,0.0,WeatherDisplay:10.37,2013-02-20 01:55:00,
2013-02-20 03:05:00,38.5,33.5,29.96,ENE,67,2.0,4.0,82,0.00,,,0.00,0.0,WeatherDisplay:10.37,2013-02-20 02:05:00,
2013-02-20 03:10:00,38.4,33.4,29.96,ENE,67,2.0,4.0,82,0.00,,,0.00,0.0,WeatherDisplay:10.37,2013-02-20 02:10:00,
2013-02-20 03:15:00,38.4,33.3,29.96,ENE,67,3.0,4.0,82,0.00,,,0.00,0.0,WeatherDisplay:10.37,2013-02-20 02:15:00,
2013-02-20 03:20:00,38.3,33.6,29.96,ENE,67,2.0,3.0,83,0.00,,,0.00,0.0,WeatherDisplay:10.37,2013-02-20 02:20:00,
2013-02-20 03:25:00,38.6,33.9,29.96,ENE,67,2.0,3.0,83,0.00,,,0.00,0.0,WeatherDisplay:10.37,2013-02-20 02:25:00,
2013-02-20 03:30:00,38.5,33.8,29.95,ENE,67,2.0,3.0,83,0.00,,,0.00,0.0,WeatherDisplay:10.37,2013-02-20 02:30:00,
2013-02-20 03:35:00,38.1,33.4,29.95,ENE,67,0.0,4.0,83,0.00,,,0.00,0.0,WeatherDisplay:10.37,2013-02-20 02:35:00,
2013-02-20 03:40:00,38.1,33.7,29.95,ENE,67,2.0,4.0,84,0.00,,,0.00,0.0,WeatherDisplay:10.37,2013-02-20 02:40:00,
2013-02-20 03:50:00,38.2,33.8,29.95,ENE,65,3.0,5.0,84,0.00,,,0.00,0.0,WeatherDisplay:10.37,2013-02-20 02:50:00,
2013-02-20 03:55:00,38.2,33.8,29.95,ENE,60,3.0,5.0,84,0.00,,,0.00,0.0,WeatherDisplay:10.37,2013-02-20 02:55:00,
2013-02-20 04:05:00,38.3,33.9,29.95,ENE,57,1.0,5.0,84,0.00,,,0.00,0.0,WeatherDisplay:10.37,2013-02-20 03:05:00,
2013-02-20 04:10:00,37.9,33.5,29.96,ENE,57,0.0,1.0,84,0.00,,,0.00,0.0,WeatherDisplay:10.37,2013-02-20 03:10:00,
2013-02-20 04:15:00,37.4,33.0,29.96,ENE,57,0.0,0.0,84,0.00,,,0.00,0.0,WeatherDisplay:10.37,2013-02-20 03:15:00,
2013-02-20 04:20:00,37.2,32.8,29.96,ENE,57,0.0,1.0,84,0.00,,,0.00,0.0,WeatherDisplay:10.37,2013-02-20 03:20:00,
2013-02-20 04:25:00,37.3,33.2,29.96,ENE,57,0.0,3.0,85,0.00,,,0.00,0.0,WeatherDisplay:10.37,2013-02-20 03:25:00,
2013-02-20 04:30:00,37.5,33.4,29.96,ENE,58,0.0,3.0,85,0.00,,,0.00,0.0,WeatherDisplay:10.37,2013-02-20 03:30:00,
2013-02-20 04:35:00,37.4,33.0,29.96,ENE,59,0.0,2.0,84,0.00,,,0.00,0.0,WeatherDisplay:10.37,2013-02-20 03:35:00,
2013-02-20 04:40:00,37.0,32.6,29.96,ENE,59,0.0,3.0,84,0.00,,,0.00,0.0,WeatherDisplay:10.37,2013-02-20 03:40:00,
2013-02-20 04:45:00,37.0,32.9,29.96,ENE,59,0.0,2.0,85,0.00,,,0.00,0.0,WeatherDisplay:10.37,2013-02-20 03:45:00,
2013-02-20 04:50:00,36.9,32.8,29.96,ENE,59,0.0,1.0,85,0.00,,,0.00,0.0,WeatherDisplay:10.37,2013-02-20 03:50:00,
2013-02-20 04:55:00,36.8,32.7,29.96,ENE,59,0.0,0.0,85,0.00,,,0.00,0.0,WeatherDisplay:10.37,2013-02-20 03:55:00,
2013-02-20 05:00:00,36.7,32.6,29.96,ENE,59,2.0,4.0,85,0.00,,,0.00,0.0,WeatherDisplay:10.37,2013-02-20 04:00:00,
2013-02-20 05:05:00,36.9,32.8,29.96,ENE,59,3.0,4.0,85,0.00,,,0.00,0.0,WeatherDisplay:10.37,2013-02-20 04:05:00,
2013-02-20 05:10:00,37.0,32.9,29.96,ENE,59,3.0,4.0,85,0.00,,,0.00,0.0,WeatherDisplay:10.37,2013-02-20 04:10:00,
2013-02-20 05:15:00,36.9,32.8,29.96,ENE,59,3.0,4.0,85,0.00,,,0.00,0.0,WeatherDisplay:10.37,2013-02-20 04:15:00,
2013-02-20 05:20:00,36.7,32.6,29.96,ENE,59,3.0,4.0,85,0.00,,,0.00,0.0,WeatherDisplay:10.37,2013-02-20 04:20:00,
2013-02-20 05:25:00,36.8,32.7,29.96,ENE,59,2.0,4.0,85,0.00,,,0.00,0.0,WeatherDisplay:10.37,2013-02-20 04:25:00,
2013-02-20 05:30:00,36.7,32.6,29.96,ENE,59,0.0,1.0,85,0.00,,,0.00,0.0,WeatherDisplay:10.37,2013-02-20 04:30:00,
2013-02-20 05:35:00,36.7,32.6,29.96,ENE,59,0.0,0.0,85,0.00,,,0.00,0.0,WeatherDisplay:10.37,2013-02-20 04:35:00,
2013-02-20 05:40:00,36.6,32.5,29.96,ENE,59,0.0,0.0,85,0.00,,,0.00,0.0,WeatherDisplay:10.37,2013-02-20 04:40:00,
2013-02-20 05:45:00,36.6,32.5,29.96,ENE,59,0.0,1.0,85,0.00,,,0.00,0.0,WeatherDisplay:10.37,2013-02-20 04:45:00,
2013-02-20 05:50:00,36.5,32.4,29.96,ENE,59,3.0,4.0,85,0.00,,,0.00,0.0,WeatherDisplay:10.37,2013-02-20 04:50:00,
2013-02-20 05:55:00,36.4,32.3,29.96,ENE,59,3.0,5.0,85,0.00,,,0.00,0.0,WeatherDisplay:10.37,2013-02-20 04:55:00,
2013-02-20 06:00:00,36.5,32.4,29.96,ENE,59,3.0,4.0,85,0.00,,,0.00,0.0,WeatherDisplay:10.37,2013-02-20 05:00:00,
2013-02-20 06:05:00,36.4,32.3,29.96,ENE,64,3.0,5.0,85,0.00,OVC,,0.00,0.0,WeatherDisplay:10.37,2013-02-20 05:05:00,
2013-02-20 06:10:00,36.4,32.3,29.96,ENE,62,0.0,3.0,85,0.00,,,0.00,0.0,WeatherDisplay:10.37,2013-02-20 05:10:00,
2013-02-20 06:15:00,36.2,32.1,29.96,ENE,59,0.0,2.0,85,0.00,,,0.00,0.0,WeatherDisplay:10.37,2013-02-20 05:15:00,
2013-02-20 06:20:00,36.1,32.1,29.96,ENE,59,1.0,4.0,85,0.00,,,0.00,0.0,WeatherDisplay:10.37,2013-02-20 05:20:00,
2013-02-20 06:25:00,36.3,32.3,29.96,ENE,59,2.0,5.0,85,0.00,,,0.00,0.0,WeatherDisplay:10.37,2013-02-20 05:25:00,
2013-02-20 06:30:00,36.3,32.2,29.96,ENE,59,0.0,3.0,85,0.00,OVC,,0.00,0.0,WeatherDisplay:10.37,2013-02-20 05:30:00,
2013-02-20 06:35:00,36.0,31.9,29.96,ENE,59,0.0,3.0,85,0.00,OVC,,0.00,0.0,WeatherDisplay:10.37,2013-02-20 05:35:00,
2013-02-20 06:40:00,35.9,31.8,29.96,ENE,59,0.0,3.0,85,0.00,OVC,,0.00,0.0,WeatherDisplay:10.37,2013-02-20 05:40:00,
2013-02-20 06:45:00,35.9,31.8,29.96,ENE,59,1.0,5.0,85,0.00,OVC,,0.00,0.0,WeatherDisplay:10.37,2013-02-20 05:45:00,
2013-02-20 06:50:00,35.7,31.6,29.95,ENE,59,5.0,7.0,85,0.00,OVC,,0.00,0.0,WeatherDisplay:10.37,2013-02-20 05:50:00,
2013-02-20 06:55:00,35.8,31.7,29.95,ENE,59,5.0,7.0,85,0.00,OVC,,0.00,0.0,WeatherDisplay:10.37,2013-02-20 05:55:00,
2013-02-20 07:00:00,35.9,31.8,29.96,ENE,58,0.0,5.0,85,0.00,OVC,,0.00,5.0,WeatherDisplay:10.37,2013-02-20 06:00:00,
2013-02-20 07:05:00,36.0,31.9,29.96,ENE,58,2.0,4.0,85,0.00,BKN,,0.00,9.0,WeatherDisplay:10.37,2013-02-20 06:05:00,
2013-02-20 07:10:00,36.0,31.9,29.96,ENE,58,5.0,5.0,85,0.00,BKN,,0.00,11.0,WeatherDisplay:10.37,2013-02-20 06:10:00,
2013-02-20 07:15:00,36.1,32.1,29.96,ENE,58,5.0,7.0,85,0.00,BKN,,0.00,16.0,WeatherDisplay:10.37,2013-02-20 06:15:00,
2013-02-20 07:20:00,36.4,32.3,29.96,ENE,57,2.0,7.0,85,0.00,BKN,,0.00,18.0,WeatherDisplay:10.37,2013-02-20 06:20:00,
2013-02-20 07:25:00,36.4,32.3,29.96,ENE,57,2.0,4.0,85,0.00,BKN,,0.00,21.0,WeatherDisplay:10.37,2013-02-20 06:25:00,
2013-02-20 07:30:00,36.4,32.0,29.97,NE,56,1.0,4.0,84,0.00,BKN,,0.00,23.0,WeatherDisplay:10.37,2013-02-20 06:30:00,
2013-02-20 07:35:00,36.5,32.1,29.97,NE,55,0.0,3.0,84,0.00,BKN,,0.00,26.0,WeatherDisplay:10.37,2013-02-20 06:35:00,
2013-02-20 07:40:00,36.5,32.1,29.96,NE,55,3.0,5.0,84,0.00,BKN,,0.00,40.0,WeatherDisplay:10.37,2013-02-20 06:40:00,
2013-02-20 07:45:00,36.8,32.4,29.96,NE,55,5.0,6.0,84,0.00,BKN,,0.00,42.0,WeatherDisplay:10.37,2013-02-20 06:45:00,
2013-02-20 07:50:00,37.0,32.6,29.97,NE,55,5.0,6.0,84,0.00,BKN,,0.00,37.0,WeatherDisplay:10.37,2013-02-20 06:50:00,
2013-02-20 07:55:00,37.0,32.3,29.97,NE,53,5.0,6.0,83,0.00,BKN,,0.00,44.0,WeatherDisplay:10.37,2013-02-20 06:55:00,
2013-02-20 08:00:00,37.3,32.6,29.97,NE,51,3.0,6.0,83,0.00,BKN,,0.00,91.0,WeatherDisplay:10.37,2013-02-20 07:00:00,
2013-02-20 08:05:00,37.6,32.9,29.97,NE,52,5.0,6.0,83,0.00,BKN,,0.00,107.0,WeatherDisplay:10.37,2013-02-20 07:05:00,
2013-02-20 08:10:00,38.0,33.0,29.97,NE,52,6.0,7.0,82,0.00,BKN,,0.00,121.0,WeatherDisplay:10.37,2013-02-20 07:10:00,
2013-02-20 08:15:00,38.2,32.9,29.97,NE,51,5.0,8.0,81,0.00,BKN,,0.00,139.0,WeatherDisplay:10.37,2013-02-20 07:15:00,
2013-02-20 08:20:00,38.4,33.1,29.97,NE,49,3.0,7.0,81,0.00,BKN,,0.00,155.0,WeatherDisplay:10.37,2013-02-20 07:20:00,
2013-02-20 08:25:00,38.9,33.2,29.97,NE,50,1.0,7.0,80,0.00,BKN,,0.00,172.0,WeatherDisplay:10.37,2013-02-20 07:25:00,
2013-02-20 08:30:00,39.1,33.1,29.97,NE,52,3.0,6.0,79,0.00,SCT,,0.00,185.0,WeatherDisplay:10.37,2013-02-20 07:30:00,
2013-02-20 08:35:00,39.2,33.3,29.97,NE,53,3.0,6.0,79,0.00,SCT,,0.00,193.0,WeatherDisplay:10.37,2013-02-20 07:35:00,
2013-02-20 08:40:00,39.6,33.9,29.97,NE,50,1.0,5.0,80,0.00,SCT,,0.00,218.0,WeatherDisplay:10.37,2013-02-20 07:40:00,
2013-02-20 08:45:00,40.3,34.0,29.97,NE,47,2.0,5.0,78,0.00,SCT,,0.00,239.0,WeatherDisplay:10.37,2013-02-20 07:45:00,
2013-02-20 08:50:00,40.6,34.2,29.97,NE,46,2.0,6.0,78,0.00,SCT,,0.00,258.0,WeatherDisplay:10.37,2013-02-20 07:50:00,
2013-02-20 08:55:00,40.9,34.2,29.97,NE,51,5.0,7.0,77,0.00,SCT,,0.00,272.0,WeatherDisplay:10.37,2013-02-20 07:55:00,
2013-02-20 09:00:00,40.8,34.1,29.97,NE,48,5.0,9.0,77,0.00,SCT,,0.00,285.0,WeatherDisplay:10.37,2013-02-20 08:00:00,
2013-02-20 09:05:00,41.6,34.9,29.97,NE,43,2.0,6.0,77,0.00,SCT,,0.00,297.0,WeatherDisplay:10.37,2013-02-20 08:05:00,
2013-02-20 09:10:00,41.9,34.9,29.97,NE,43,3.0,6.0,76,0.00,SCT,,0.00,313.0,WeatherDisplay:10.37,2013-02-20 08:10:00,
2013-02-20 09:15:00,42.0,34.7,29.97,NE,42,1.0,6.0,75,0.00,FEW,,0.00,327.0,WeatherDisplay:10.37,2013-02-20 08:15:00,
2013-02-20 09:20:00,42.6,35.6,29.97,NE,41,1.0,8.0,76,0.00,FEW,,0.00,339.0,WeatherDisplay:10.37,2013-02-20 08:20:00,
2013-02-20 09:25:00,42.8,35.1,29.97,NE,45,1.0,5.0,74,0.00,FEW,,0.00,352.0,WeatherDisplay:10.37,2013-02-20 08:25:00,
2013-02-20 09:30:00,43.8,36.0,29.97,NE,49,3.0,6.0,74,0.00,FEW,,0.00,366.0,WeatherDisplay:10.37,2013-02-20 08:30:00,
2013-02-20 09:35:00,44.2,36.1,29.97,NE,48,0.0,4.0,73,0.00,FEW,,0.00,378.0,WeatherDisplay:10.37,2013-02-20 08:35:00,
2013-02-20 09:40:00,44.6,35.8,29.97,NE,50,0.0,3.0,71,0.00,FEW,,0.00,394.0,WeatherDisplay:10.37,2013-02-20 08:40:00,
2013-02-20 09:45:00,45.1,36.2,29.97,NE,52,1.0,4.0,71,0.00,FEW,,0.00,404.0,WeatherDisplay:10.37,2013-02-20 08:45:00,
2013-02-20 09:50:00,45.5,36.7,29.97,NE,47,2.0,5.0,71,0.00,FEW,,0.00,418.0,WeatherDisplay:10.37,2013-02-20 08:50:00,
2013-02-20 09:55:00,45.6,36.0,29.97,NE,44,3.0,6.0,69,0.00,FEW,,0.00,429.0,WeatherDisplay:10.37,2013-02-20 08:55:00,
2013-02-20 10:00:00,45.7,36.8,29.97,NE,40,1.0,7.0,71,0.00,CLR,,0.00,439.0,WeatherDisplay:10.37,2013-02-20 09:00:00,
2013-02-20 10:05:00,46.1,36.5,29.97,NE,43,5.0,8.0,69,0.00,CLR,,0.00,454.0,WeatherDisplay:10.37,2013-02-20 09:05:00,
2013-02-20 10:10:00,46.2,37.0,29.96,ENE,60,5.0,8.0,70,0.00,CLR,,0.00,468.0,WeatherDisplay:10.37,2013-02-20 09:10:00,
2013-02-20 10:15:00,46.8,37.9,29.96,ENE,69,5.0,9.0,71,0.00,CLR,,0.00,478.0,WeatherDisplay:10.37,2013-02-20 09:15:00,
2013-02-20 10:20:00,47.2,37.6,29.96,ENE,67,6.0,10.0,69,0.00,CLR,,0.00,489.0,WeatherDisplay:10.37,2013-02-20 09:20:00,
2013-02-20 10:25:00,48.3,38.6,29.96,ENE,71,3.0,9.0,69,0.00,CLR,,0.00,497.0,WeatherDisplay:10.37,2013-02-20 09:25:00,
2013-02-20 10:30:00,49.0,38.9,29.96,ENE,76,3.0,6.0,68,0.00,CLR,,0.00,512.0,WeatherDisplay:10.37,2013-02-20 09:30:00,
2013-02-20 10:35:00,49.5,39.4,29.96,ENE,76,1.0,6.0,68,0.00,CLR,,0.00,531.0,WeatherDisplay:10.37,2013-02-20 09:35:00,
2013-02-20 10:40:00,49.3,38.8,29.97,East,90,2.0,7.0,67,0.00,CLR,,0.00,566.0,WeatherDisplay:10.37,2013-02-20 09:40:00,
2013-02-20 10:45:00,50.5,39.5,29.97,East,91,1.0,7.0,66,0.00,CLR,,0.00,601.0,WeatherDisplay:10.37,2013-02-20 09:45:00,
2013-02-20 10:50:00,50.2,38.9,29.97,ENE,63,5.0,7.0,65,0.00,CLR,,0.00,598.0,WeatherDisplay:10.37,2013-02-20 09:50:00,
2013-02-20 10:55:00,50.8,39.9,29.97,ENE,60,2.0,6.0,66,0.00,CLR,,0.00,635.0,WeatherDisplay:10.37,2013-02-20 09:55:00,
2013-02-20 11:00:00,51.9,40.1,29.97,ESE,121,0.0,7.0,64,0.00,CLR,,0.00,714.0,WeatherDisplay:10.37,2013-02-20 10:00:00,
2013-02-20 11:05:00,52.7,40.5,29.97,SSE,149,1.0,5.0,63,0.00,CLR,,0.00,274.0,WeatherDisplay:10.37,2013-02-20 10:05:00,
2013-02-20 11:10:00,51.9,39.3,29.97,SE,134,0.0,4.0,62,0.00,CLR,,0.00,383.0,WeatherDisplay:10.37,2013-02-20 10:10:00,
2013-02-20 11:15:00,53.4,40.7,29.97,SE,138,0.0,5.0,62,0.00,SCT,,0.00,729.0,WeatherDisplay:10.37,2013-02-20 10:15:00,
2013-02-20 11:20:00,54.6,41.0,29.96,ENE,73,0.0,5.0,60,0.00,CLR,,0.00,759.0,WeatherDisplay:10.37,2013-02-20 10:20:00,
2013-02-20 11:25:00,53.8,39.3,29.96,SE,136,2.0,7.0,58,0.00,CLR,,0.00,359.0,WeatherDisplay:10.37,2013-02-20 10:25:00,
2013-02-20 11:30:00,53.7,39.7,29.96,South,177,1.0,4.0,59,0.00,FEW,,0.00,339.0,WeatherDisplay:10.37,2013-02-20 10:30:00,
2013-02-20 11:35:00,52.6,39.1,29.96,South,170,2.0,6.0,60,0.00,SCT,,0.00,341.0,WeatherDisplay:10.37,2013-02-20 10:35:00,
2013-02-20 11:40:00,53.3,40.6,29.96,SSE,165,2.0,7.0,62,0.00,SCT,,0.00,292.0,WeatherDisplay:10.37,2013-02-20 10:40:00,
2013-02-20 11:45:00,53.1,40.0,29.96,SSE,168,2.0,8.0,61,0.00,SCT,,0.00,705.0,WeatherDisplay:10.37,2013-02-20 10:45:00,
2013-02-20 11:50:00,54.9,41.2,29.96,SSE,167,2.0,8.0,60,0.00,CLR,,0.00,538.0,WeatherDisplay:10.37,2013-02-20 10:50:00,
2013-02-20 11:55:00,53.3,38.4,29.96,SE,128,1.0,8.0,57,0.00,CLR,,0.00,448.0,WeatherDisplay:10.37,2013-02-20 10:55:00,
2013-02-20 12:00:00,52.9,38.5,29.95,East,91,1.0,6.0,58,0.00,FEW,,0.00,236.0,WeatherDisplay:10.37,2013-02-20 11:00:00,
2013-02-20 12:05:00,52.9,38.5,29.95,ESE,108,5.0,10.0,58,0.00,SCT,,0.00,176.0,WeatherDisplay:10.37,2013-02-20 11:05:00,
2013-02-20 12:10:00,52.9,38.1,29.95,SE,124,2.0,8.0,57,0.00,SCT,,0.00,130.0,WeatherDisplay:10.37,2013-02-20 11:10:00,
2013-02-20 12:15:00,52.5,38.1,29.95,ESE,121,0.0,6.0,58,0.00,SCT,,0.00,88.0,WeatherDisplay:10.37,2013-02-20 11:15:00,
2013-02-20 12:20:00,52.5,38.1,29.95,SE,128,0.0,4.0,58,0.00,SCT,,0.00,74.0,WeatherDisplay:10.37,2013-02-20 11:20:00,
2013-02-20 12:25:00,52.4,38.0,29.95,SE,130,0.0,6.0,58,0.00,SCT,,0.00,72.0,WeatherDisplay:10.37,2013-02-20 11:25:00,
2013-02-20 12:30:00,52.4,38.0,29.95,SE,130,0.0,3.0,58,0.00,SCT,,0.00,74.0,WeatherDisplay:10.37,2013-02-20 11:30:00,
2013-02-20 12:35:00,52.3,38.4,29.95,SE,130,0.0,3.0,59,0.00,SCT,,0.00,84.0,WeatherDisplay:10.37,2013-02-20 11:35:00,
2013-02-20 12:40:00,52.4,38.0,29.95,SE,130,1.0,3.0,58,0.00,SCT,,0.00,127.0,WeatherDisplay:10.37,2013-02-20 11:40:00,
2013-02-20 12:45:00,52.4,38.0,29.94,SE,130,0.0,3.0,58,0.00,SCT,,0.00,202.0,WeatherDisplay:10.37,2013-02-20 11:45:00,
2013-02-20 12:50:00,52.5,38.1,29.94,SE,130,1.0,4.0,58,0.00,SCT,,0.00,209.0,WeatherDisplay:10.37,2013-02-20 11:50:00,
2013-02-20 12:55:00,52.7,38.8,29.94,SE,130,1.0,3.0,59,0.00,SCT,,0.00,218.0,WeatherDisplay:10.37,2013-02-20 11:55:00,
2013-02-20 13:00:00,52.9,38.5,29.94,SE,130,1.0,3.0,58,0.00,SCT,,0.00,227.0,WeatherDisplay:10.37,2013-02-20 12:00:00,
2013-02-20 13:05:00,52.9,38.5,29.94,SE,130,0.0,4.0,58,0.00,FEW,,0.00,220.0,WeatherDisplay:10.37,2013-02-20 12:05:00,
2013-02-20 13:10:00,53.0,38.6,29.94,SE,130,1.0,3.0,58,0.00,FEW,,0.00,213.0,WeatherDisplay:10.37,2013-02-20 12:10:00,
2013-02-20 13:15:00,52.9,37.7,29.94,SE,130,1.0,3.0,56,0.00,FEW,,0.00,216.0,WeatherDisplay:10.37,2013-02-20 12:15:00,
2013-02-20 13:20:00,53.0,38.2,29.93,SE,130,0.0,2.0,57,0.00,FEW,,0.00,221.0,WeatherDisplay:10.37,2013-02-20 12:20:00,
2013-02-20 13:25:00,53.1,37.4,29.93,SE,130,0.0,2.0,55,0.00,FEW,,0.00,216.0,WeatherDisplay:10.37,2013-02-20 12:25:00,
2013-02-20 13:30:00,53.5,38.6,29.93,SE,130,0.0,4.0,57,0.00,FEW,,0.00,227.0,WeatherDisplay:10.37,2013-02-20 12:30:00,
2013-02-20 13:35:00,53.5,39.5,29.93,SSE,158,2.0,5.0,59,0.00,FEW,,0.00,258.0,WeatherDisplay:10.37,2013-02-20 12:35:00,
2013-02-20 13:40:00,52.7,38.8,29.93,South,190,5.0,7.0,59,0.00,FEW,,0.00,295.0,WeatherDisplay:10.37,2013-02-20 12:40:00,
2013-02-20 13:45:00,52.0,38.9,29.93,SSW,195,1.0,7.0,61,0.00,FEW,,0.00,309.0,WeatherDisplay:10.37,2013-02-20 12:45:00,
2013-02-20 13:50:00,52.3,39.3,29.92,SSW,194,2.0,7.0,61,0.00,FEW,,0.00,313.0,WeatherDisplay:10.37,2013-02-20 12:50:00,
2013-02-20 13:55:00,53.6,40.1,29.92,SSW,195,0.0,3.0,60,0.00,FEW,,0.00,364.0,WeatherDisplay:10.37,2013-02-20 12:55:00,
2013-02-20 14:00:00,54.7,40.2,29.92,SSW,199,0.0,1.0,58,0.00,FEW,,0.00,473.0,WeatherDisplay:10.37,2013-02-20 13:00:00,
2013-02-20 14:05:00,54.2,38.9,29.92,SSW,199,0.0,3.0,56,0.00,CLR,,0.00,367.0,WeatherDisplay:10.37,2013-02-20 13:05:00,
2013-02-20 14:10:00,54.2,38.8,29.92,SSW,199,2.0,4.0,56,0.00,CLR,,0.00,313.0,WeatherDisplay:10.37,2013-02-20 13:10:00,
2013-02-20 14:15:00,53.2,38.4,29.92,SSW,199,0.0,3.0,57,0.00,CLR,,0.00,262.0,WeatherDisplay:10.37,2013-02-20 13:15:00,
2013-02-20 14:20:00,54.2,39.3,29.91,SSW,199,0.0,0.0,57,0.00,FEW,,0.00,302.0,WeatherDisplay:10.37,2013-02-20 13:20:00,
2013-02-20 14:25:00,54.4,39.5,29.91,SSW,199,0.0,2.0,57,0.00,CLR,,0.00,554.0,WeatherDisplay:10.37,2013-02-20 13:25:00,
2013-02-20 14:30:00,55.1,39.7,29.91,SSW,199,1.0,3.0,56,0.00,CLR,,0.00,596.0,WeatherDisplay:10.37,2013-02-20 13:30:00,
2013-02-20 14:35:00,54.9,38.6,29.91,South,188,1.0,4.0,54,0.00,CLR,,0.00,171.0,WeatherDisplay:10.37,2013-02-20 13:35:00,
2013-02-20 14:40:00,54.0,38.2,29.91,South,182,2.0,7.0,55,0.00,FEW,,0.00,174.0,WeatherDisplay:10.37,2013-02-20 13:40:00,
2013-02-20 14:45:00,53.0,37.7,29.91,South,174,1.0,7.0,56,0.00,SCT,,0.00,202.0,WeatherDisplay:10.37,2013-02-20 13:45:00,
2013-02-20 14:50:00,53.2,37.9,29.91,South,178,3.0,6.0,56,0.00,FEW,,0.00,244.0,WeatherDisplay:10.37,2013-02-20 13:50:00,
2013-02-20 14:55:00,52.8,38.0,29.91,South,189,3.0,7.0,57,0.00,FEW,,0.00,185.0,WeatherDisplay:10.37,2013-02-20 13:55:00,
2013-02-20 15:00:00,52.6,37.8,29.91,SSW,193,6.0,7.0,57,0.00,FEW,,0.00,186.0,WeatherDisplay:10.37,2013-02-20 14:00:00,
2013-02-20 15:05:00,52.6,37.8,29.90,SSW,194,5.0,8.0,57,0.00,FEW,,0.00,195.0,WeatherDisplay:10.37,2013-02-20 14:05:00,
2013-02-20 15:10:00,52.9,39.0,29.90,South,191,2.0,8.0,59,0.00,CLR,,0.00,190.0,WeatherDisplay:10.37,2013-02-20 14:10:00,
2013-02-20 15:15:00,52.8,38.4,29.90,South,188,5.0,8.0,58,0.00,FEW,,0.00,193.0,WeatherDisplay:10.37,2013-02-20 14:15:00,
2013-02-20 15:20:00,52.7,38.3,29.90,South,184,2.0,8.0,58,0.00,FEW,,0.00,195.0,WeatherDisplay:10.37,2013-02-20 14:20:00,
2013-02-20 15:25:00,52.9,39.4,29.90,South,184,2.0,8.0,60,0.00,FEW,,0.00,193.0,WeatherDisplay:10.37,2013-02-20 14:25:00,
2013-02-20 15:30:00,52.6,39.1,29.90,South,185,2.0,7.0,60,0.00,FEW,,0.00,199.0,WeatherDisplay:10.37,2013-02-20 14:30:00,
2013-02-20 15:35:00,52.6,39.1,29.90,South,181,3.0,9.0,60,0.00,FEW,,0.00,218.0,WeatherDisplay:10.37,2013-02-20 14:35:00,
2013-02-20 15:40:00,53.0,39.4,29.90,South,178,3.0,7.0,60,0.00,FEW,,0.00,262.0,WeatherDisplay:10.37,2013-02-20 14:40:00,
2013-02-20 15:45:00,52.9,39.8,29.89,South,185,5.0,8.0,61,0.00,FEW,,0.00,225.0,WeatherDisplay:10.37,2013-02-20 14:45:00,
2013-02-20 15:50:00,52.7,39.2,29.89,South,182,2.0,9.0,60,0.00,FEW,,0.00,179.0,WeatherDisplay:10.37,2013-02-20 14:50:00,
2013-02-20 15:55:00,52.5,39.0,29.89,South,183,3.0,8.0,60,0.00,FEW,,0.00,264.0,WeatherDisplay:10.37,2013-02-20 14:55:00,
2013-02-20 16:00:00,52.9,39.4,29.89,South,185,5.0,12.0,60,0.00,FEW,,0.00,360.0,WeatherDisplay:10.37,2013-02-20 15:00:00,
2013-02-20 16:05:00,53.0,39.9,29.89,South,181,3.0,9.0,61,0.00,FEW,,0.00,246.0,WeatherDisplay:10.37,2013-02-20 15:05:00,
2013-02-20 16:10:00,52.8,39.3,29.89,South,179,2.0,8.0,60,0.00,FEW,,0.00,366.0,WeatherDisplay:10.37,2013-02-20 15:10:00,
2013-02-20 16:15:00,53.2,40.1,29.89,South,170,1.0,7.0,61,0.00,CLR,,0.00,160.0,WeatherDisplay:10.37,2013-02-20 15:15:00,
2013-02-20 16:20:00,53.0,39.9,29.89,South,182,3.0,7.0,61,0.00,CLR,,0.00,246.0,WeatherDisplay:10.37,2013-02-20 15:20:00,
2013-02-20 16:25:00,53.2,40.1,29.89,SSW,192,1.0,9.0,61,0.00,CLR,,0.00,269.0,WeatherDisplay:10.37,2013-02-20 15:25:00,
2013-02-20 16:30:00,52.6,39.5,29.88,SSW,192,6.0,9.0,61,0.00,CLR,,0.00,104.0,WeatherDisplay:10.37,2013-02-20 15:30:00,
2013-02-20 16:35:00,52.2,39.6,29.88,SSW,192,7.0,12.0,62,0.00,CLR,,0.00,209.0,WeatherDisplay:10.37,2013-02-20 15:35:00,
2013-02-20 16:40:00,52.4,40.2,29.88,SSW,193,3.0,9.0,63,0.00,CLR,,0.00,185.0,WeatherDisplay:10.37,2013-02-20 15:40:00,
2013-02-20 16:45:00,52.4,40.2,29.88,South,187,5.0,12.0,63,0.00,CLR,,0.00,165.0,WeatherDisplay:10.37,2013-02-20 15:45:00,
2013-02-20 16:50:00,52.1,39.1,29.88,South,189,7.0,12.0,61,0.00,OVC,,0.00,151.0,WeatherDisplay:10.37,2013-02-20 15:50:00,
2013-02-20 16:55:00,52.3,40.1,29.88,South,181,3.0,9.0,63,0.00,OVC,,0.00,132.0,WeatherDisplay:10.37,2013-02-20 15:55:00,
2013-02-20 17:00:00,52.3,40.1,29.88,South,175,5.0,8.0,63,0.00,OVC,,0.00,121.0,WeatherDisplay:10.37,2013-02-20 16:00:00,
2013-02-20 17:05:00,52.1,40.3,29.88,South,185,2.0,8.0,64,0.00,FEW,,0.00,105.0,WeatherDisplay:10.37,2013-02-20 16:05:00,
2013-02-20 17:10:00,52.4,40.2,29.88,South,191,2.0,7.0,63,0.00,FEW,,0.00,95.0,WeatherDisplay:10.37,2013-02-20 16:10:00,
2013-02-20 17:15:00,52.3,40.0,29.88,SSW,197,5.0,7.0,63,0.00,FEW,,0.00,84.0,WeatherDisplay:10.37,2013-02-20 16:15:00,
2013-02-20 17:20:00,51.9,39.7,29.88,SSW,199,6.0,8.0,63,0.00,FEW,,0.00,70.0,WeatherDisplay:10.37,2013-02-20 16:20:00,
2013-02-20 17:25:00,51.7,39.9,29.88,SSW,193,3.0,8.0,64,0.00,FEW,,0.00,46.0,WeatherDisplay:10.37,2013-02-20 16:25:00,
2013-02-20 17:30:00,51.6,39.4,29.88,SSW,195,5.0,8.0,63,0.00,FEW,,0.00,33.0,WeatherDisplay:10.37,2013-02-20 16:30:00,
2013-02-20 17:35:00,51.5,39.7,29.88,SSW,198,3.0,7.0,64,0.00,OVC,,0.00,21.0,WeatherDisplay:10.37,2013-02-20 16:35:00,
2013-02-20 17:40:00,51.4,39.6,29.88,SSW,196,1.0,6.0,64,0.00,OVC,,0.00,12.0,WeatherDisplay:10.37,2013-02-20 16:40:00,
2013-02-20 17:45:00,51.3,39.9,29.88,SSW,196,1.0,3.0,65,0.00,OVC,,0.00,7.0,WeatherDisplay:10.37,2013-02-20 16:45:00,
2013-02-20 17:50:00,51.1,39.7,29.88,SSW,196,1.0,3.0,65,0.00,OVC,,0.00,0.0,WeatherDisplay:10.37,2013-02-20 16:50:00,
2013-02-20 17:55:00,51.0,39.6,29.88,SSW,196,1.0,3.0,65,0.00,OVC,,0.00,0.0,WeatherDisplay:10.37,2013-02-20 16:55:00,
2013-02-20 18:00:00,50.8,39.9,29.89,SSW,196,0.0,4.0,66,0.00,,,0.00,0.0,WeatherDisplay:10.37,2013-02-20 17:00:00,
2013-02-20 18:05:00,50.8,39.8,29.89,SSW,196,1.0,3.0,66,0.00,,,0.00,0.0,WeatherDisplay:10.37,2013-02-20 17:05:00,
2013-02-20 18:10:00,50.9,39.9,29.89,SSW,196,0.0,1.0,66,0.00,,,0.00,0.0,WeatherDisplay:10.37,2013-02-20 17:10:00,
2013-02-20 18:15:00,50.9,39.9,29.89,SSW,196,0.0,1.0,66,0.00,,,0.00,0.0,WeatherDisplay:10.37,2013-02-20 17:15:00,
2013-02-20 18:20:00,50.6,39.7,29.89,SSW,196,0.0,2.0,66,0.00,,,0.00,0.0,WeatherDisplay:10.37,2013-02-20 17:20:00,
2013-02-20 18:25:00,50.5,39.9,29.89,SSW,196,0.0,1.0,67,0.00,,,0.00,0.0,WeatherDisplay:10.37,2013-02-20 17:25:00,
2013-02-20 18:30:00,50.4,39.9,29.89,SSW,196,0.0,1.0,67,0.00,,,0.00,0.0,WeatherDisplay:10.37,2013-02-20 17:30:00,
2013-02-20 18:35:00,50.2,40.0,29.89,SSW,196,0.0,0.0,68,0.00,,,0.00,0.0,WeatherDisplay:10.37,2013-02-20 17:35:00,
2013-02-20 18:40:00,50.2,40.0,29.90,SSW,196,0.0,1.0,68,0.00,,,0.00,0.0,WeatherDisplay:10.37,2013-02-20 17:40:00,
2013-02-20 18:45:00,49.9,40.1,29.90,SSW,196,0.0,0.0,69,0.00,,,0.00,0.0,WeatherDisplay:10.37,2013-02-20 17:45:00,
2013-02-20 18:50:00,49.8,40.0,29.90,SSW,196,0.0,1.0,69,0.00,,,0.00,0.0,WeatherDisplay:10.37,2013-02-20 17:50:00,
2013-02-20 18:55:00,49.6,40.2,29.90,SSW,196,0.0,1.0,70,0.00,,,0.00,0.0,WeatherDisplay:10.37,2013-02-20 17:55:00,
2013-02-20 19:00:00,49.7,40.3,29.90,SSW,196,0.0,1.0,70,0.00,,,0.00,0.0,WeatherDisplay:10.37,2013-02-20 18:00:00,
2013-02-20 19:05:00,49.7,40.3,29.90,SSW,196,0.0,1.0,70,0.00,,,0.00,0.0,WeatherDisplay:10.37,2013-02-20 18:05:00,
2013-02-20 19:10:00,49.5,40.1,29.90,SSW,196,0.0,1.0,70,0.00,,,0.00,0.0,WeatherDisplay:10.37,2013-02-20 18:10:00,
2013-02-20 19:15:00,49.5,40.1,29.90,SSW,196,0.0,0.0,70,0.00,,,0.00,0.0,WeatherDisplay:10.37,2013-02-20 18:15:00,
2013-02-20 19:20:00,49.6,40.2,29.90,SSW,196,0.0,0.0,70,0.00,,,0.00,0.0,WeatherDisplay:10.37,2013-02-20 18:20:00,
2013-02-20 19:25:00,49.4,40.0,29.90,SSW,196,1.0,2.0,70,0.00,,,0.00,0.0,WeatherDisplay:10.37,2013-02-20 18:25:00,
2013-02-20 19:30:00,49.3,39.9,29.90,SSW,196,0.0,2.0,70,0.00,,,0.00,0.0,WeatherDisplay:10.37,2013-02-20 18:30:00,
2013-02-20 19:35:00,49.0,40.0,29.90,SSW,196,1.0,2.0,71,0.00,,,0.00,0.0,WeatherDisplay:10.37,2013-02-20 18:35:00,
2013-02-20 19:40:00,48.7,40.1,29.90,SSW,196,0.0,2.0,72,0.00,,,0.00,0.0,WeatherDisplay:10.37,2013-02-20 18:40:00,
2013-02-20 19:45:00,48.6,40.0,29.90,SSW,196,0.0,2.0,72,0.00,,,0.00,0.0,WeatherDisplay:10.37,2013-02-20 18:45:00,
2013-02-20 19:50:00,48.3,40.0,29.90,SSW,196,0.0,3.0,73,0.00,,,0.00,0.0,WeatherDisplay:10.37,2013-02-20 18:50:00,
2013-02-20 19:55:00,48.0,39.8,29.90,SSW,196,0.0,2.0,73,0.00,,,0.00,0.0,WeatherDisplay:10.37,2013-02-20 18:55:00,
2013-02-20 20:00:00,47.8,39.6,29.90,SSW,196,1.0,3.0,73,0.00,,,0.00,0.0,WeatherDisplay:10.37,2013-02-20 19:00:00,
2013-02-20 20:05:00,47.8,39.9,29.90,SSW,196,1.0,3.0,74,0.00,,,0.00,0.0,WeatherDisplay:10.37,2013-02-20 19:05:00,
2013-02-20 20:10:00,47.7,39.5,29.90,SSW,196,0.0,2.0,73,0.00,,,0.00,0.0,WeatherDisplay:10.37,2013-02-20 19:10:00,
2013-02-20 20:15:00,47.4,39.5,29.90,SSW,196,1.0,2.0,74,0.00,,,0.00,0.0,WeatherDisplay:10.37,2013-02-20 19:15:00,
2013-02-20 20:20:00,47.3,39.5,29.90,SSW,196,1.0,3.0,74,0.00,,,0.00,0.0,WeatherDisplay:10.37,2013-02-20 19:20:00,
2013-02-20 20:25:00,47.1,39.2,29.90,SSW,196,1.0,3.0,74,0.00,,,0.00,0.0,WeatherDisplay:10.37,2013-02-20 19:25:00,
2013-02-20 20:30:00,46.9,39.4,29.90,SSW,196,0.0,2.0,75,0.00,,,0.00,0.0,WeatherDisplay:10.37,2013-02-20 19:30:00,
2013-02-20 20:35:00,46.8,39.3,29.90,SSW,195,0.0,1.0,75,0.00,,,0.00,0.0,WeatherDisplay:10.37,2013-02-20 19:35:00,
2013-02-20 20:40:00,46.7,39.2,29.90,SSW,195,0.0,2.0,75,0.00,,,0.00,0.0,WeatherDisplay:10.37,2013-02-20 19:40:00,
2013-02-20 20:45:00,46.6,39.1,29.90,SSW,195,1.0,3.0,75,0.00,,,0.00,0.0,WeatherDisplay:10.37,2013-02-20 19:45:00,
2013-02-20 20:50:00,46.6,39.1,29.90,South,190,2.0,4.0,75,0.00,,,0.00,0.0,WeatherDisplay:10.37,2013-02-20 19:50:00,
2013-02-20 20:55:00,46.5,39.0,29.90,South,177,1.0,4.0,75,0.00,,,0.00,0.0,WeatherDisplay:10.37,2013-02-20 19:55:00,
2013-02-20 21:00:00,46.3,39.1,29.90,SSE,158,2.0,5.0,76,0.00,,,0.00,0.0,WeatherDisplay:10.37,2013-02-20 20:00:00,
2013-02-20 21:05:00,46.1,39.0,29.90,SSE,152,1.0,5.0,76,0.00,,,0.00,0.0,WeatherDisplay:10.37,2013-02-20 20:05:00,
2013-02-20 21:10:00,46.0,38.9,29.90,SSE,150,1.0,3.0,76,0.00,,,0.00,0.0,WeatherDisplay:10.37,2013-02-20 20:10:00,
2013-02-20 21:15:00,46.0,38.9,29.90,SSE,150,1.0,3.0,76,0.00,,,0.00,0.0,WeatherDisplay:10.37,2013-02-20 20:15:00,
2013-02-20 21:20:00,45.8,38.7,29.90,SSE,150,1.0,4.0,76,0.00,,,0.00,0.0,WeatherDisplay:10.37,2013-02-20 20:20:00,
2013-02-20 21:25:00,45.9,38.8,29.90,SSE,150,2.0,4.0,76,0.00,,,0.00,0.0,WeatherDisplay:10.37,2013-02-20 20:25:00,
2013-02-20 21:30:00,45.9,38.8,29.91,SSE,150,2.0,4.0,76,0.00,,,0.00,0.0,WeatherDisplay:10.37,2013-02-20 20:30:00,
2013-02-20 21:35:00,45.9,38.8,29.91,SSE,149,2.0,4.0,76,0.00,,,0.00,0.0,WeatherDisplay:10.37,2013-02-20 20:35:00,
2013-02-20 21:40:00,45.9,38.8,29.91,SSE,149,0.0,2.0,76,0.00,,,0.00,0.0,WeatherDisplay:10.37,2013-02-20 20:40:00,
2013-02-20 21:45:00,45.9,38.8,29.91,SSE,149,1.0,4.0,76,0.00,,,0.00,0.0,WeatherDisplay:10.37,2013-02-20 20:45:00,
2013-02-20 21:50:00,45.9,38.4,29.91,SSE,149,2.0,4.0,75,0.00,,,0.00,0.0,WeatherDisplay:10.37,2013-02-20 20:50:00,
2013-02-20 21:55:00,45.9,38.4,29.91,SSE,149,2.0,4.0,75,0.00,,,0.00,0.0,WeatherDisplay:10.37,2013-02-20 20:55:00,
2013-02-20 22:00:00,45.7,38.2,29.91,SSE,149,3.0,5.0,75,0.00,,,0.00,0.0,WeatherDisplay:10.37,2013-02-20 21:00:00,
2013-02-20 22:10:00,45.3,38.2,29.91,SSE,149,3.0,4.0,76,0.00,,,0.00,0.0,WeatherDisplay:10.37,2013-02-20 21:10:00,
2013-02-20 22:15:00,45.2,38.1,29.91,SSE,149,1.0,4.0,76,0.00,,,0.00,0.0,WeatherDisplay:10.37,2013-02-20 21:15:00,
2013-02-20 22:20:00,45.1,38.0,29.90,SSE,149,2.0,4.0,76,0.00,,,0.00,0.0,WeatherDisplay:10.37,2013-02-20 21:20:00,
2013-02-20 22:25:00,44.8,38.1,29.90,SSE,149,0.0,3.0,77,0.00,,,0.00,0.0,WeatherDisplay:10.37,2013-02-20 21:25:00,
2013-02-20 22:30:00,44.8,38.0,29.90,SSE,149,0.0,1.0,77,0.00,,,0.00,0.0,WeatherDisplay:10.37,2013-02-20 21:30:00,
2013-02-20 22:35:00,44.6,37.8,29.90,SSE,149,0.0,1.0,77,0.00,,,0.00,0.0,WeatherDisplay:10.37,2013-02-20 21:35:00,
2013-02-20 22:40:00,44.4,37.9,29.90,SSE,149,1.0,2.0,78,0.00,,,0.00,0.0,WeatherDisplay:10.37,2013-02-20 21:40:00,
2013-02-20 22:45:00,44.3,37.9,29.90,SSE,149,1.0,3.0,78,0.00,,,0.00,0.0,WeatherDisplay:10.37,2013-02-20 21:45:00,
2013-02-20 22:50:00,44.4,38.0,29.90,SSE,149,0.0,2.0,78,0.00,,,0.00,0.0,WeatherDisplay:10.37,2013-02-20 21:50:00,
2013-02-20 22:55:00,44.5,38.1,29.90,SSE,149,0.0,2.0,78,0.00,,,0.00,0.0,WeatherDisplay:10.37,2013-02-20 21:55:00,
2013-02-20 23:00:00,43.9,37.5,29.90,SSE,149,0.0,1.0,78,0.00,,,0.00,0.0,WeatherDisplay:10.37,2013-02-20 22:00:00,
2013-02-20 23:05:00,43.6,37.5,29.90,SSE,148,0.0,1.0,79,0.00,,,0.00,0.0,WeatherDisplay:10.37,2013-02-20 22:05:00,
2013-02-20 23:10:00,43.6,37.8,29.89,SSE,148,0.0,1.0,80,0.00,,,0.00,0.0,WeatherDisplay:10.37,2013-02-20 22:10:00,
2013-02-20 23:15:00,43.9,37.8,29.89,SSE,148,0.0,0.0,79,0.00,,,0.00,0.0,WeatherDisplay:10.37,2013-02-20 22:15:00,
2013-02-20 23:20:00,43.8,37.7,29.89,SSE,148,0.0,0.0,79,0.00,,,0.00,0.0,WeatherDisplay:10.37,2013-02-20 22:20:00,
2013-02-20 23:25:00,43.5,37.7,29.89,SSE,148,0.0,1.0,80,0.00,,,0.00,0.0,WeatherDisplay:10.37,2013-02-20 22:25:00,
2013-02-20 23:30:00,43.3,37.5,29.89,SSE,148,0.0,1.0,80,0.00,,,0.00,0.0,WeatherDisplay:10.37,2013-02-20 22:30:00,
2013-02-20 23:35:00,43.2,37.8,29.89,SSE,148,0.0,0.0,81,0.00,,,0.00,0.0,WeatherDisplay:10.37,2013-02-20 22:35:00,
2013-02-20 23:40:00,43.1,37.7,29.89,SSE,148,0.0,0.0,81,0.00,,,0.00,0.0,WeatherDisplay:10.37,2013-02-20 22:40:00,
2013-02-20 23:50:00,43.0,37.6,29.89,SSE,148,0.0,0.0,81,0.00,,,0.00,0.0,WeatherDisplay:10.37,2013-02-20 22:50:00,
2013-02-20 23:55:00,43.0,37.6,29.89,SSE,148,0.0,0.0,81,0.00,,,0.00,0.0,WeatherDisplay:10.37,2013-02-20 22:55:00,